Satellite-Ground Cal/Val Site Overpasses Predictions

Prediction of Satellite NPP Overpassing Cal/Val Site: Antarctic Dome C

Ground Cal/Val Site Location: Latitude: -75.10, Longitude: 123.35; Satellite-Ground Site NADIR distance within 100 km.

Table of predicted overpasses for the next 14.0 days since TLE Epoch: 2/2/2013
Interval Starting Time Ending Time Minimum Distance Time Minimum Distance (km)
1 02/03/2013 14:53:05 02/03/2013 14:53:34 02/03/2013 14:53:19 21.91
2 02/04/2013 14:34:24 02/04/2013 14:34:39 02/04/2013 14:34:32 85.03
3 02/05/2013 07:35:57 02/05/2013 07:36:25 02/05/2013 07:36:11 34.14
4 02/06/2013 07:17:13 02/06/2013 07:17:32 02/06/2013 07:17:23 75.84
5 02/08/2013 14:59:30 02/08/2013 14:59:54 02/08/2013 14:59:42 59.31
6 02/09/2013 14:40:41 02/09/2013 14:41:06 02/09/2013 14:40:53 49.73
7 02/10/2013 07:42:23 02/10/2013 07:42:43 02/10/2013 07:42:33 69.76
8 02/11/2013 07:23:32 02/11/2013 07:23:59 02/11/2013 07:23:45 38.07
9 02/13/2013 15:06:02 02/13/2013 15:06:07 02/13/2013 15:06:05 97.49
